Miscellaneous Local Product
Issued by NWS Hastings, NE

Home | Current Version | Previous Version | Text Only | Print | Product List | Glossary Off
Versions: 1 2 3 4 5 6 7 8 9 10 11 12 13 14 15 16 17 18 19 20 21 22 23 24 25 26 27 28 29 30 31 32 33 34 35 36 37 38 39 40 41 42 43 44 45 46 47 48 49 50

000
AXUS43 KGID 220902
MISGRI

GID CWA HOURLY WEATHER ROUNDUP
NATIONAL WEATHER SERVICE HASTINGS NE
300 AM CST WED NOV 22 2017

NOTE: "FAIR" INDICATES FEW OR NO CLOUDS BELOW 12,000 FEET WITH NO
SIGNIFICANT WEATHER AND/OR OBSTRUCTIONS TO VISIBILITY.

...SOUTH CENTRAL NEBRASKA...

CITY           SKY/WX    TMP DP  RH WIND       PRES   REMARKS
GRAND ISLAND   CLOUDY    19  14  81 SW5       30.39R WCI  12
KEARNEY        CLOUDY    22  13  68 SW8       30.35F WCI  12
HASTINGS       CLOUDY    18  10  71 SW3       30.38F
ORD            CLOUDY    17  13  84 SE3       30.32F
YORK           CLOUDY    14  10  85 CALM      30.38F
AURORA         CLOUDY    13   9  82 W3        30.38S
LEXINGTON      CLOUDY    25  15  65 S5        30.32F WCI  19
HOLDREGE       CLOUDY    22  12  65 S7        30.34F WCI  14
HEBRON         CLOUDY    14  10  85 CALM      30.43R

...NEBRASKA PANHANDLE...

CITY           SKY/WX    TMP DP  RH WIND       PRES   REMARKS
CHADRON        CLOUDY    30  26  85 SW3       30.13F
ALLIANCE       CLOUDY    26  26 100 S6        30.16F WCI  19
SCOTTSBLUFF    CLOUDY    32  26  78 NW3       30.19F
SIDNEY         CLOUDY    32  28  85 W8        30.19F WCI  25

...WESTERN AND NORTH CENTRAL NEBRASKA...

CITY           SKY/WX    TMP DP  RH WIND       PRES   REMARKS
VALENTINE      CLOUDY    22  16  78 CALM      30.22F
AINSWORTH      CLOUDY    23  15  71 S7        30.25R WCI  15
ONEILL         CLOUDY    16  13  89 S7        30.30F WCI   6
BROKEN BOW     CLOUDY    21  14  74 S6        30.29F WCI  13
IMPERIAL       CLOUDY    31  26  82 S7        30.26F WCI  24
NORTH PLATTE   CLOUDY    24  18  77 E5        30.28F WCI  18
MCCOOK         CLOUDY    22  16  78 SE5       30.32F WCI  16

...EASTERN NEBRASKA...

CITY           SKY/WX    TMP DP  RH WIND       PRES   REMARKS
NORFOLK        CLOUDY    12   9  87 SW5       30.36F WCI   4
SO SIOUX CITY  CLOUDY    12   8  84 CALM      30.40F
TEKAMAH        CLOUDY     9   5  84 CALM      30.41F
COLUMBUS       CLOUDY    12   9  87 CALM      30.40F
ALBION         CLOUDY    11   8  86 CALM      30.36F
OMAHA EPPLEY   CLOUDY    19  11  70 CALM      30.43S
OFFUTT AFB     CLOUDY    17   9  72 CALM      30.42S
MILLARD        CLOUDY    21  13  71 CALM      30.42S
LINCOLN        CLOUDY    15  10  80 MISG      30.43F
NEBRASKA CITY  CLOUDY    19  13  78 NW7       30.42S WCI  10
BEATRICE       CLOUDY    15  12  85 CALM      30.43R
FALLS CITY     CLOUDY    16  11  80 NW5       30.43R WCI   9

...NORTHERN KANSAS...

CITY           SKY/WX    TMP DP  RH WIND       PRES   REMARKS
GOODLAND       CLOUDY    29  22  75 S13       30.27F WCI  19
HILL CITY      CLOUDY    20  15  81 S5        30.37F WCI  13
NORTON         SUNNY     25  10  54 S6        30.34F WCI  18
PHILLIPSBURG   CLEAR     19  12  73 CALM      30.39F
SMITH CENTER   CLEAR     16  10  79 E6        30.40F WCI   7
HAYS           CLOUDY    19  12  74 CALM      30.41R
RUSSELL        CLOUDY    22  14  71 CALM      30.39F
CONCORDIA      CLOUDY    17  12  80 W6        30.42S WCI   9
SALINA         CLOUDY    21  13  71 NW5       30.44S WCI  15
TOPEKA         CLOUDY    19  13  77 NW3       30.44S



USA.gov is the U.S. government's official web portal to all federal, state and local government web resources and services.